Time,TemperatureF,DewpointF,PressureIn,WindDirection,WindDirectionDegrees,WindSpeedMPH,WindSpeedGustMPH,Humidity,HourlyPrecipIn,Conditions,Clouds,dailyrainin,SolarRadiationWatts/m^2,SoftwareType,DateUTC
2013-07-22 00:43:00,51.0,50.0,-100.00,NE,45,1.0,2.0,96,-99.99,,,0.00,0.000000,,2013-07-22 07:43:00,
2013-07-22 01:01:00,51.0,50.0,-100.00,NE,45,1.0,2.0,96,-99.99,,,0.00,0.000000,,2013-07-22 08:01:00,
2013-07-22 01:32:00,50.0,49.0,-100.00,East,86,1.0,2.0,97,-99.99,,,0.00,0.000000,,2013-07-22 08:32:00,
2013-07-22 01:43:00,50.0,49.0,-100.00,East,86,1.0,2.0,97,-99.99,,,0.00,0.000000,,2013-07-22 08:43:00,
2013-07-22 02:33:00,52.0,51.0,-100.00,NE,37,1.0,4.0,97,-99.99,,,-99.99,0.000000,,2013-07-22 09:33:00,
2013-07-22 02:42:00,52.0,51.0,-100.00,NE,37,1.0,4.0,97,-99.99,,,-99.99,0.000000,,2013-07-22 09:42:00,
2013-07-22 02:52:00,52.0,51.0,-100.00,NE,37,1.0,4.0,97,-99.99,,,-99.99,0.000000,,2013-07-22 09:52:00,
2013-07-22 03:01:00,52.0,51.0,-100.00,NE,37,1.0,4.0,97,-99.99,,,-99.99,0.000000,,2013-07-22 10:01:00,
2013-07-22 03:32:00,54.0,53.0,-100.00,ENE,65,0.0,3.0,97,0.00,,,0.00,0.000000,,2013-07-22 10:32:00,
2013-07-22 03:43:00,54.0,53.0,-100.00,ENE,65,0.0,3.0,97,0.00,,,0.00,0.000000,,2013-07-22 10:43:00,
2013-07-22 03:53:00,54.0,53.0,-100.00,ENE,65,0.0,3.0,97,0.00,,,0.00,0.000000,,2013-07-22 10:53:00,
2013-07-22 04:32:00,55.0,54.0,-100.00,NW,323,1.0,2.0,96,0.00,,,0.00,0.000000,,2013-07-22 11:32:00,
2013-07-22 04:43:00,55.0,54.0,-100.00,NW,323,1.0,2.0,96,0.00,,,0.00,0.000000,,2013-07-22 11:43:00,
2013-07-22 04:52:00,55.0,54.0,-100.00,NW,323,1.0,2.0,96,0.00,,,0.00,0.000000,,2013-07-22 11:52:00,
2013-07-22 05:33:00,55.0,52.0,-100.00,NW,316,1.0,2.0,90,0.00,,,0.00,0.000000,,2013-07-22 12:33:00,
2013-07-22 05:43:00,55.0,52.0,-100.00,NW,316,1.0,2.0,90,0.00,,,0.00,0.000000,,2013-07-22 12:43:00,
2013-07-22 05:53:00,55.0,52.0,-100.00,NW,316,1.0,2.0,90,0.00,,,0.00,0.000000,,2013-07-22 12:53:00,
2013-07-22 06:01:00,55.0,52.0,-100.00,NW,316,1.0,2.0,90,0.00,,,0.00,0.000000,,2013-07-22 13:01:00,
2013-07-22 06:43:00,53.0,50.0,-100.00,NNW,339,1.0,2.0,91,0.00,,,0.00,4.000000,,2013-07-22 13:43:00,
2013-07-22 06:53:00,53.0,50.0,-100.00,NNW,339,1.0,2.0,91,0.00,,,0.00,4.000000,,2013-07-22 13:53:00,
2013-07-22 07:01:00,53.0,50.0,-100.00,NNW,339,1.0,2.0,91,0.00,,,0.00,4.000000,,2013-07-22 14:01:00,
2013-07-22 07:43:00,55.0,50.0,-100.00,NE,56,0.0,3.0,83,0.00,,,0.00,52.000000,,2013-07-22 14:43:00,
2013-07-22 07:53:00,55.0,50.0,-100.00,NE,56,0.0,3.0,83,0.00,,,0.00,52.000000,,2013-07-22 14:53:00,
2013-07-22 08:01:00,55.0,50.0,-100.00,NE,56,0.0,3.0,83,0.00,,,0.00,52.000000,,2013-07-22 15:01:00,
2013-07-22 08:43:00,58.0,52.0,-100.00,North,357,1.0,3.0,80,0.00,,,-99.99,120.000000,,2013-07-22 15:43:00,
2013-07-22 08:52:00,58.0,52.0,-100.00,North,357,1.0,3.0,80,0.00,,,-99.99,120.000000,,2013-07-22 15:52:00,
2013-07-22 09:01:00,58.0,52.0,-100.00,North,357,1.0,3.0,80,0.00,,,-99.99,120.000000,,2013-07-22 16:01:00,
2013-07-22 09:32:00,66.0,54.0,-100.00,NE,38,1.0,5.0,66,0.00,,,0.00,317.000000,,2013-07-22 16:32:00,
2013-07-22 09:43:00,66.0,54.0,-100.00,NE,38,1.0,5.0,66,0.00,,,0.00,317.000000,,2013-07-22 16:43:00,
2013-07-22 09:52:00,66.0,54.0,-100.00,NE,38,1.0,5.0,66,0.00,,,0.00,317.000000,,2013-07-22 16:52:00,
2013-07-22 10:01:00,66.0,54.0,-100.00,NE,38,1.0,5.0,66,0.00,,,0.00,317.000000,,2013-07-22 17:01:00,
2013-07-22 10:33:00,72.0,55.0,-100.00,NE,55,2.0,8.0,55,0.00,,,0.00,827.000000,,2013-07-22 17:33:00,
2013-07-22 10:43:00,72.0,55.0,-100.00,NE,55,2.0,8.0,55,0.00,,,0.00,827.000000,,2013-07-22 17:43:00,
2013-07-22 10:52:00,72.0,55.0,-100.00,NE,55,2.0,8.0,55,0.00,,,0.00,827.000000,,2013-07-22 17:52:00,
2013-07-22 11:53:00,76.0,55.0,-100.00,SE,142,4.0,12.0,49,0.00,,,0.00,1013.000000,,2013-07-22 18:53:00,
2013-07-22 12:02:00,76.0,55.0,-100.00,SE,142,4.0,12.0,49,0.00,,,0.00,1013.000000,,2013-07-22 19:02:00,
2013-07-22 12:46:00,79.0,53.0,-100.00,ENE,65,3.0,13.0,40,0.00,,,0.00,1145.000000,,2013-07-22 19:46:00,
2013-07-22 12:55:00,79.0,53.0,-100.00,ENE,65,3.0,13.0,40,0.00,,,0.00,1145.000000,,2013-07-22 19:55:00,
2013-07-22 13:02:00,79.0,53.0,-100.00,ENE,65,3.0,13.0,40,0.00,,,0.00,1145.000000,,2013-07-22 20:02:00,
2013-07-22 13:32:00,84.0,53.0,-100.00,NE,39,3.0,12.0,34,0.00,,,0.00,1216.000000,,2013-07-22 20:32:00,
2013-07-22 13:43:00,84.0,53.0,-100.00,NE,39,3.0,12.0,34,0.00,,,0.00,1216.000000,,2013-07-22 20:43:00,
2013-07-22 13:52:00,84.0,53.0,-100.00,NE,39,3.0,12.0,34,0.00,,,0.00,1216.000000,,2013-07-22 20:52:00,
2013-07-22 14:01:00,84.0,53.0,-100.00,NE,39,3.0,12.0,34,0.00,,,0.00,1216.000000,,2013-07-22 21:01:00,
2013-07-22 14:33:00,88.0,50.0,-100.00,West,277,3.0,12.0,27,0.00,,,0.00,1231.000000,,2013-07-22 21:33:00,
2013-07-22 14:43:00,88.0,50.0,-100.00,West,277,3.0,12.0,27,0.00,,,0.00,1231.000000,,2013-07-22 21:43:00,
2013-07-22 14:53:00,88.0,50.0,-100.00,West,277,3.0,12.0,27,0.00,,,0.00,1231.000000,,2013-07-22 21:53:00,
2013-07-22 15:43:00,87.0,50.0,-100.00,ESE,113,4.0,12.0,28,-99.99,,,0.00,1175.000000,,2013-07-22 22:43:00,
2013-07-22 15:52:00,87.0,50.0,-100.00,ESE,113,4.0,12.0,28,-99.99,,,0.00,1175.000000,,2013-07-22 22:52:00,
2013-07-22 16:01:00,87.0,50.0,-100.00,ESE,113,4.0,12.0,28,-99.99,,,0.00,1175.000000,,2013-07-22 23:01:00,
2013-07-22 16:43:00,88.0,53.0,-100.00,ESE,111,4.0,13.0,30,0.00,,,0.00,1033.000000,,2013-07-22 23:43:00,
2013-07-22 16:52:00,88.0,53.0,-100.00,ESE,111,4.0,13.0,30,0.00,,,0.00,1033.000000,,2013-07-22 23:52:00,
2013-07-22 17:43:00,86.0,53.0,-100.00,NW,316,4.0,13.0,32,-99.99,,,0.00,850.000000,,2013-07-23 00:43:00,
2013-07-22 18:32:00,83.0,52.0,-100.00,WSW,247,2.0,10.0,34,-99.99,,,0.00,639.000000,,2013-07-23 01:32:00,
2013-07-22 18:43:00,83.0,52.0,-100.00,WSW,247,2.0,10.0,34,-99.99,,,0.00,639.000000,,2013-07-23 01:43:00,
2013-07-22 18:53:00,83.0,52.0,-100.00,WSW,247,2.0,10.0,34,-99.99,,,0.00,639.000000,,2013-07-23 01:53:00,
2013-07-22 19:01:00,83.0,52.0,-100.00,WSW,247,2.0,10.0,34,-99.99,,,0.00,639.000000,,2013-07-23 02:01:00,
2013-07-22 19:33:00,75.0,52.0,-100.00,WSW,240,2.0,13.0,45,0.00,,,0.00,296.000000,,2013-07-23 02:33:00,
2013-07-22 19:43:00,75.0,52.0,-100.00,WSW,240,2.0,13.0,45,0.00,,,0.00,296.000000,,2013-07-23 02:43:00,
2013-07-22 19:53:00,75.0,52.0,-100.00,WSW,240,2.0,13.0,45,0.00,,,0.00,296.000000,,2013-07-23 02:53:00,
2013-07-22 20:01:00,75.0,52.0,-100.00,WSW,240,2.0,13.0,45,0.00,,,0.00,296.000000,,2013-07-23 03:01:00,
2013-07-22 20:52:00,67.0,50.0,-100.00,NNE,26,2.0,12.0,55,0.00,,,0.00,82.000000,,2013-07-23 03:52:00,
2013-07-22 21:01:00,67.0,50.0,-100.00,NNE,26,2.0,12.0,55,0.00,,,0.00,82.000000,,2013-07-23 04:01:00,
2013-07-22 21:53:00,62.0,52.0,-100.00,West,276,1.0,6.0,71,0.00,,,0.00,6.000000,,2013-07-23 04:53:00,
2013-07-22 22:02:00,62.0,52.0,-100.00,West,276,1.0,6.0,71,0.00,,,0.00,6.000000,,2013-07-23 05:02:00,
2013-07-22 22:44:00,56.0,51.0,-100.00,East,81,1.0,3.0,83,0.00,,,0.00,0.000000,,2013-07-23 05:44:00,
2013-07-22 22:52:00,56.0,51.0,-100.00,East,81,1.0,3.0,83,0.00,,,0.00,0.000000,,2013-07-23 05:52:00,
2013-07-22 23:01:00,56.0,51.0,-100.00,East,81,1.0,3.0,83,0.00,,,0.00,0.000000,,2013-07-23 06:01:00,